Погода Канадей

Погода Канадей : погода сейчас, прогноз погоды и архив. Всё, что Вы хотите узнать о погоде Канадей!

Поиск расширенной информации на нашем сайте:

Другие новости

Новости СМИ2

Главная страница сайта

Новости сайта

03.07.2017

Напоминаем, что на нашем специализированном сайте Метеоцентр.Азия вы можете получить высокодетализированные автоматические прогнозы погоды по пунктам России, СНГ и мира в авиационном формате (включающие направление и скорость ветра, видимость, явления погоды, количество и форму облачности, нижнюю и верхнюю границу облачности).


Погода Канадей - сегодня

Время (UTC), дата Ветер
(°,м/с) 
Видим.   Явления Облачность Т
(°С)
Тd
(°С)
f(%) Тe
(°С)
Pmin
(гПа)
dP
(гПа)
Po
(мм)
O2
(г/м3)
Тmin Tmax R s Состояние
почвы
00 22.05.18 360 (С) 10 км    5/0 верхняя 
[Ci sp]
+6.6 +5.2 91 +8  1029.2  1.7  763  299           
06 22.05.18 110 (В) 20000 м    10/0 верхняя 
[Ci]
+17.1 +3.5 40 +17  1031.1  1.1  764  289           
09 22.05.18 130 (ЮВ) 20000 м    10/0 верхняя 
[Ci]
+21.3 -1 22 +21  1030.5  -0.5  764  286           
18 22.05.18 310 (СЗ) 10 км    ясно 
+14.1 +3.3 48 +15  1029.1  0.2  763  292           
21 22.05.18 тихо ()   10 км    ясно 
+7.4 +5 85 +7  1029.3  0.1  763  298           
00 23.05.18 тихо ()   10 км    ясно 
+4.7 +3.4 91 +5  1029.8  0.3  763  302           
06 23.05.18 150 (ЮВ) 20000 м    4/0 верхняя 
[Ci sp]
+20.3 +7.3 43 +20  1029  -0.5  763  285           
09 23.05.18 160 (Ю) 20000 м    9/0 средняя, верхняя 
[Ac trans|Ci sp]
+25.4 +2.2 22 +25  1027.3  -1.4  762  281           
12 23.05.18 130 (ЮВ) 20000 м    10/0 средняя, верхняя 
[Ac trans|Ci sp]
+26.3 +3.1 22 +26  1025.6  -1.7  761  279           
18 23.05.18 210 (ЮЗ) 10 км    10/0 средняя, верхняя 
[Ac trans|Ci]
+19.3 +8.5 50 +21  1023.5  -1.1  759  284           
21 23.05.18 тихо ()   10 км    4/0 средняя 
[Ac trans]
+15.1 +7.5 60 +15  1022.6  -1.1  758  288           
00 24.05.18 тихо ()   10 км    9/0 средняя 
[Ac trans]
+12.2 +9.2 82 +12  1022  -0.5  758  291           
09 24.05.18 100 (В) 20000 м    10/0 средняя, верхняя 
[Ac trans|Ci]
+25.5 +7.1 31 +26  1018.5  -0.7  755  277           
12 24.05.18 100 (В) 20000 м    10/0 верхняя 
[Ci]
+27.4 +6.3 26 +27  1016.1  -2.3  754  275           
00 25.05.18 040 (СВ) 10 км    9/0 средняя 
[Ac trans]
+17.5 +12.2 71 +23  1015  1.3  752  283           
18 25.05.18 030 (СВ) 3{12}  10 км    3/3 600 м 
[Sc]
+10.8 -2.8 38 +10  1022.2  2.6  758  294           
21 25.05.18 010 (С) 10 км    ясно 
+8.3 -4.1 41 +8  1023.7  1.4  759  297           
00 26.05.18 010 (С) 10 км    ясно 
+6.3 -2.3 54 +6  1025.4  1.5  760  300           
18 26.05.18 160 (Ю) 10 км    ясно 
+7 -2 53 +8  1030.8  1.4  764  300           
21 26.05.18 290 (З) 10 км    ясно 
+2.3 -1.2 78 +2  1031.8  0.8  764  306           
00 27.05.18 290 (З) 10 км    ясно 
-0.3 -1.9 89 -1  1032.5  0.5  765  309           
06 27.05.18 260 (З) 20000 м    ясно 
+16.6 -1 30 +17  1030.2  -1.5  764  290           
09 27.05.18 260 (З) 20000 м    1/0 верхняя 
[Ci sp]
+19.6 -0.9 25 +20  1027.8  -2.2  762  287           
18 27.05.18 300 (СЗ) 10 км    4/0 средняя, верхняя 
[Ac trans|Ci sp]
+14.1 +1.7 43 +15  1019.9  -1.6  756  289           
21 27.05.18 260 (З) 10 км    10/0 верхняя 
[Ci]
+12.3 +1.7 48 +12  1017.7  -2.2  754  291           
Время (UTC), дата Ветер
(°,м/с) 
Видим.   Явления Облачность Т
(°С)
Тd
(°С)
f(%) Тe
(°С)
Pmin
(гПа)
dP
(гПа)
Po
(мм)
O2
(г/м3)
Тmin Tmax R s Состояние
почвы

Для получения пояснительной информации подведите курсор к названию столбца.

ПОГОДА Канадей - архив

Всё, что Вы хотите узнать о погоде Канадей - удобно и подробно!

Выберите нужную дату (начиная с 1 января 2015* года) и нажмите кнопку "Найти".
Будут отображены архивные сводки погоды по пункту Канадей, начиная с указанной даты.


Отображать данные в формате CSV (для использования в таблицах Excel)


Внимание! Наш архив погоды предназначен исключительно для личного некоммерческого использования в познавательных целях. Если Вам необходимы официальные справки о состоянии погоды (для производственных, юридических, коммерческих и т.п. целей), обращайтесь в органы Росгидромета.

*Примечание: данная дата относится к архиву по метеостанциям СССР (Россия, СНГ, Балтия).
Архив по метеостанциям Зарубежной Европы и Азии (кроме Китая) хранится 10 дней, по другим регионам земного шара (Китай, Африка, Америка, Австралия, Океания) - 1 день.

Канадей - район местоположения метеостанции


Название, широта, долгота, высота метеостанции:
Канадей 53.1°ш. 47.5°д. 103 м над ур. моря [Российская Федерация]

Дополнительная информация

В oтличие oт бoльшинства пoгoдных сайтoв мы публикуем пoдрoбную метеoинфoрмацию в детальнoм прoфессиoнальнoм фoрмате.

Характеристики температуры и влажнoсти вoздуха измеряются на высoте 2 м в тени вдали oт зданий и деревьев.
Скoрoсть ветра измеряется на высoте 10 м (на урoвне рoста челoвека скoрoсть ветра ниже в 1.5-2 раза). Если метеoстанция нахoдится в гoрoде или в лесу, тo скoрoсть ветра занижена на 2-4 м/с пo сравнению с oткрытым местoм. Скoрoсть ветра над акватoриями крупных рек и oзёр, а также на вершинах хoлмoв на 2-5 м/с выше, чем в oбычных услoвиях.
Атмoсфернoе давление в разных тoчках местнoсти мoжет значительнo oтличаться oт давления на метеoстанции, в зависимoсти oт услoвий рельефа (при пoдъёме на 10 м давление пoнижается примернo на 1 мм рт.ст.).